Showing default

GARAI-A, 62635

Orbit data source: Space-Track

GARAI-A, 62635 is a payload satellite owned by Satlantis (ES) in SSO that was launched on Tue, 14 Jan 2025 UTC via an FALCON 9 launch vehicle from the Air Force Western Test Range (AFWTR). Payload-class satellites include a variety of spacecraft equipped with specific instruments for various scientific and technological missions. These include communications satellites like Starlink; space stations such as the ISS; scientific satellites like the Hubble; Earth observation satellites from companies like Planet Labs, Umbra, and HawkEye 360; GPS; miniature CubeSats for education and research; and military/defense satellites.

Loading next visibility...
Identifier
62635, 2025-009AC
Orbit
SSO
Country
Flag of ESES / SPN
Related business
Manufacturer
OHB-SE
Mission
Operational Commercial Imaging
Bus & Motor
INNOSAT, Unknown motor
Mass
115 kg wet, 115 kg dry
Launch date (UTC)
2025-01-14 (9 months ago)
Launch vehicle
FALCON 9
Launch site
Air Force Western Test Range (AFWTR)
Object type
Payload
Rocket body
Debris
Shape & HBR
Box, 3.0 m
Radar Cross Section
1.305 m², Large (>1 m²)

Expand to show TLE details & history
Last TLE update: 9 hours ago

TLE from 9 hours ago
0 GARAI-A
1 62635U 25009AC  25292.90900179  .00018669  00000-0  82748-3 0  9995
2 62635  97.4227  11.6053 0003905  86.3430 273.8252 15.21655138 42251
Epoch: 2025-10-19T21:48Z
TLE epoch observation values (Epoch: 2025-10-19T21:48:57.754Z)
Latitude
-0.00008°
Longitude
15.74576°
Altitude
503.762 km
Speed
7.612 km/s
True Right ascension
00h 46m 25s
True Declination
0° 00' 00"
Sunlit
Object was in full shadow at epoch
Visualization orbit readout
Latitude
Unknown
Longitude
Unknown
Altitude
Unknown
Speed
Unknown
Apparent Right ascension
Unknown
Apparent Declination
Unknown
Sunlit
N/A
Visualization observer readout
Local Sidereal Time
01:15:40
Azimuth
Unknown
Elevation
Unknown
Doppler factor
Unknown
Orbital elements
Apogee altitude
500.497 km
Perigee altitude
495.127 km
Semi-major axis
6,875.949 km
Eccentricity
0.00039
Inclination
97.4227°
RAAN
11.6053°
Arg. of periapsis
86.343°
True anomaly
273.78055°
Mean anomaly
273.8252°
Eccentric anomaly
273.80288°
Mean motion
3.80666 °/min
Orbital period
94.57 mins
BSTAR
0.00082748
Loading maneuver chart data...
Computing Atmospheric mass density...
Loading historical data...
Loading historical data...
Loading historical data...
Loading historical data...
Loading historical data...
Loading historical data...
Loading historical data...

Documentation

Showing up to 5 results
|